Flag for Germany Weather past 2 weeks in Papenburg, Lower Saxony, Germany

Now
72 °F

Overcast.


Feels Like: 74 °F
Forecast: 62 / 77 °F
Wind: 6 mph from Northeast

Location: Emden-Koenigspolder

Current Time: Jul 25, 2014 at 4:09:06 PM

Latest Report: Jul 25, 2014 at 3:00 PM


Visibility: 9 mi

Pressure: 29.97 "Hg

Humidity: 72%

Dew point: 62 °F

Location of PapenburgLocation

Historic Weather in Papenburg — Graph

°F

Papenburg temperature yesterday

Maximum temperature yesterday: 79 °F (at 2:00 PM)
Minimum temperature yesterday: 57 °F (at 6:00 AM)
Average temperature yesterday: 69 °F

Past Weeks' High & Low Weather Summary

 TemperatureHumidityPressure
High91 °F (Jul 19, 5:00 PM)99% (Jul 18, 6:00 AM)30.18 "Hg (Jul 18, 6:00 AM)
Low53 °F (Jul 12, 6:00 AM)31% (Jul 19, 5:00 PM)29.67 "Hg (Jul 13, 7:00 PM)
Average69 °F75%29.97 "Hg
* Reported Jul 10 2:00 PM — Jul 25 2:00 PM, Papenburg, Weather by CustomWeather, © 2014

Note: Actual official high and low records may vary slightly from our data, if they occured in-between our weather recording intervals... More about our weather records

Advertising

Papenburg weather history for previous 24 hours

 ConditionsComfort  
Time TempWeatherWind HumidityBarometerVisibility
2:00 PM
Jul 25
72 °FOvercast.5 mph76%29.98 "Hg7 mi
1:00 PM70 °FOvercast.5 mph79%29.99 "Hg5 mi
12:00 PM68 °FLight rain. Overcast.3 mph85%30.01 "Hg8 mi
11:00 AM67 °FLight rain. Low clouds.2 mph88%30.03 "Hg5 mi
10:00 AM66 °FLight rain. Partly sunny.1 mph89%30.03 "Hg5 mi
9:00 AM67 °FLight rain. Overcast.2 mph86%30.02 "Hg9 mi
8:00 AM65 °FOvercast.2 mph88%30.02 "Hg6 mi
7:00 AM64 °FFog.1 mph93%30.03 "Hg4 mi
6:00 AM63 °FOvercast.1 mph92%30.02 "Hg8 mi
4:00 AM63 °FOvercast.1 mph93%30.03 "Hg6 mi
3:00 AM64 °FLight rain. Overcast.1 mph93%30.04 "Hg5 mi
2:00 AM64 °FOvercast.1 mph89%30.04 "Hg7 mi
1:00 AM64 °FFog.1 mph93%30.05 "Hg4 mi
12:00 AM65 °FOvercast.2 mph90%30.04 "Hg6 mi
11:00 PM
Jul 24
N/APassing clouds.8 mphN/AN/A2 mi
10:00 PM68 °FOvercast.2 mph83%30.04 "Hg7 mi
9:00 PM71 °FOvercast.2 mph78%30.03 "Hg8 mi
8:00 PM74 °FOvercast.3 mph70%30.02 "Hg10 mi
7:00 PM76 °FOvercast.3 mph61%30.02 "Hg6 mi
6:00 PM76 °FOvercast.6 mph60%30.03 "Hg9 mi
4:00 PM75 °FOvercast.7 mph56%30.04 "Hg6 mi
Weather by CustomWeather, © 2014

See weather overviewHow to use our weather pages